Lid_Strength_Index
7 7 7 7 7 7 7 7 9 8 10 10 7 6 5 5 4 4 4 4 3 3 3 2 2 2 1 1 1 1 1 1 1 0 0 -0 -0 -0 -0 -0 -0 -1 -0 -0
8 7 7 8 7 7 7 7 7 7 10 5 5 5 5 5 4 5 5 4 3 3 3 3 2 2 2 1 1 1 1 1 1 0 1 0 0 0 -0 0 -0 -0 0 0
9 7 7 9 7 7 7 6 6 9 8 6 6 6 6 5 5 5 4 4 3 3 2 2 2 2 2 1 1 1 1 1 1 1 1 1 0 0 1 0 0 0 0 0
9 10 16 9 6 5 6 7 6 7 7 6 6 5 5 4 5 5 4 4 3 2 2 2 1 2 1 1 1 2 2 1 1 1 1 1 1 1 0 0 1 1 1 0
10 10 8 9 7 7 7 9 6 7 6 6 5 5 6 4 3 4 3 3 3 2 2 1 1 1 1 2 2 2 2 1 1 1 1 1 1 1 0 0 1 1 0 1
9 11 12 11 7 5 6 11 6 6 7 6 6 7 8 4 3 3 3 3 3 2 1 1 1 1 2 2 2 2 2 1 1 1 1 1 1 1 0 1 1 0 0 0
9 10 8 7 6 5 11 11 6 6 6 6 7 6 4 3 3 2 2 2 2 2 2 2 1 1 2 2 2 1 1 1 1 0 1 0 0 0 1 0 0 0 1 0
8 10 11 6 6 10 8 5 5 5 5 5 5 4 4 3 3 3 3 2 2 3 2 2 1 1 2 2 1 1 1 1 1 1 1 1 1 1 0 1 1 1 1 1
10 11 6 5 6 4 4 5 5 5 4 4 4 4 4 4 3 3 2 2 2 2 3 2 1 1 2 2 1 1 1 2 1 1 1 1 1 1 2 1 2 2 2 2
8 7 6 5 4 4 4 4 4 3 3 3 4 4 3 3 3 3 2 2 2 2 3 3 2 1 2 2 2 1 2 2 2 2 1 1 1 1 1 1 2 2 2 2
7 6 5 5 4 4 4 3 3 3 3 3 3 4 4 4 3 3 3 2 2 2 2 2 2 2 1 1 1 2 2 2 2 1 1 2 1 1 1 1 1 2 1 1
10 5 5 5 4 3 4 4 3 3 4 3 3 4 4 4 3 3 3 3 3 3 2 2 2 1 1 1 1 1 2 2 2 2 2 2 2 2 7 7 8 8 10 5
6 4 4 3 3 3 3 3 3 3 3 3 4 3 3 4 3 3 2 3 3 3 3 2 2 1 1 1 1 1 2 1 1 2 2 2 1 1 2 4 9 9 9 9
3 3 4 4 4 2 2 2 3 2 2 3 3 3 2 3 3 3 3 2 2 2 4 4 4 5 3 1 1 1 1 5 1 1 1 1 1 1 1 2 2 2 8 7
3 3 3 2 2 2 2 2 3 3 3 4 3 3 3 3 4 4 3 3 2 2 3 4 5 5 3 3 4 3 2 2 2 2 2 2 2 1 1 1 1 1 1 7
3 3 3 3 3 3 3 3 4 4 3 3 3 3 3 2 3 3 4 5 4 5 4 4 4 4 3 2 2 3 3 4 4 3 2 2 2 2 2 2 2 2 2 2
4 4 4 4 4 3 3 3 3 4 3 3 3 2 2 3 3 2 3 5 5 5 4 4 4 3 3 2 2 1 2 2 2 3 3 2 2 2 2 2 1 2 2 3
2 2 2 3 3 4 3 3 3 3 4 3 2 2 3 3 3 3 2 2 2 2 3 3 3 3 2 2 3 2 2 1 2 2 2 2 1 1 1 1 2 2 2 1
2 3 3 3 3 3 3 3 3 3 3 2 2 3 2 2 2 2 2 2 2 2 3 3 4 3 3 3 3 2 2 2 2 3 2 3 1 1 1 1 1 1 1 2
3 2 2 3 2 2 2 2 2 2 2 1 2 2 2 2 2 2 2 3 3 3 2 2 2 2 2 1 1 2 2 1 1 1 1 1 2 2 2 3 2 2 2 1
3 3 3 3 2 2 2 2 2 2 2 2 2 2 3 2 2 2 3 4 2 1 1 1 1 1 1 1 1 1 1 2 2 2 1 2 1 1 1 2 1 1 1 1
3 3 3 2 2 2 2 1 1 1 2 2 2 2 2 2 2 2 2 2 1 3 1 0 0 2 1 2 1 1 2 2 2 2 2 1 1 1 1 1 2 1 1 1
2 3 2 2 2 2 2 1 1 1 2 2 2 2 2 1 1 3 3 1 1 2 1 0 3 3 3 0 1 1 1 1 1 1 1 1 1 1 1 1 1 0 1 1
2 2 2 2 2 2 3 2 1 1 2 1 1 1 1 2 2 1 1 3 3 3 0 0 1 3 3 -0 -0 0 0 0 0 0 0 3 0 0 0 1 1 1 1 2
2 2 2 2 2 2 2 2 1 1 2 1 1 1 1 0 0 1 1 1 4 2 1 5 3 3 -0 1 1 1 0 0 0 0 0 1 1 2 2 2 2 2 2 2
2 2 2 2 2 2 2 2 2 2 2 3 2 1 0 1 1 0 0 1 0 2 0 -0 0 1 0 0 0 0 1 1 0 1 1 1 1 1 1 1 2 2 2 2
2 3 2 1 1 1 2 2 2 2 1 1 2 0 1 1 1 1 3 1 0 0 1 0 -0 0 -0 -1 -0 -0 0 0 4 1 1 1 1 0 1 1 1 1 1 1